Location: Unspecified
(49.2170°N, 0.0000°E)
Time: 05:40:28
(UTC+00:00)

Vanguard 1 - Pass Details

Date: 02 February 2021
Orbit: 649 x 3834 km, 34.2° (Epoch: 08 March)

Event Time Altitude Azimuth Distance (km) Brightness Sun altitude
Rises 17:34:40 0° 278° (W) 7,419 15.9 -6.3°
Reaches altitude 10° 17:41:01 10° 267° (W) 6,701 15.9 -7.3°
Maximum altitude 17:56:23 24° 224° (SW) 5,802 14.8 -9.7°
Drops below altitude 10° 18:11:18 10° 181° (S) 6,411 14.4 -12.1°
Sets 18:17:20 0° 168° (SSE) 7,031 14.4 -13.1°
